Temperature
22 22 22 21 21 21 20 20 20 20 19 19 19 19 19 19 19 19 19 19 19 19 18 18 18 18 18 18 19 19 19 19 19 19 18 18 18 18 18 18 17 18 18
22 22 22 21 21 21 20 20 20 20 19 19 19 19 19 19 19 19 19 19 19 19 19 19 19 18 18 18 19 19 19 19 19 18 18 18 18 18 18 17 17 18 18
22 22 22 21 21 20 20 20 20 19 19 19 19 19 19 19 19 19 19 19 19 19 19 19 19 19 19 19 19 19 19 18 18 18 18 18 18 18 18 17 18 18 18
22 22 22 21 21 20 20 20 20 19 19 19 19 19 19 19 19 19 19 19 19 19 19 19 19 19 19 19 19 19 18 18 18 18 17 17 18 18 18 18 18 18 17
21 21 22 21 21 20 20 20 20 19 19 19 19 19 19 19 19 19 19 19 19 19 19 19 19 19 19 19 19 19 18 18 18 18 17 17 18 18 18 18 18 18 17
21 21 21 21 20 20 20 20 20 19 19 19 19 19 19 19 19 19 19 19 19 19 19 19 19 19 19 19 19 19 19 18 18 18 17 18 18 18 18 18 18 18 17
20 21 21 21 20 20 20 20 20 19 19 19 19 19 19 19 19 19 19 19 19 19 19 19 19 19 19 19 19 19 19 18 18 18 18 18 18 18 18 18 18 17 17
20 21 21 21 20 20 20 20 19 19 19 19 19 19 19 19 19 19 19 19 19 19 19 19 19 19 19 19 19 19 19 19 18 18 18 18 18 18 18 18 18 17 17
21 21 21 21 20 20 20 20 19 19 19 19 19 19 19 19 19 19 19 19 19 19 18 18 18 18 19 19 19 19 19 19 19 18 18 18 18 18 18 18 18 18 17
21 20 20 20 20 20 20 20 19 19 19 19 19 19 19 19 19 19 19 18 18 18 18 18 18 18 18 19 19 19 19 19 19 19 18 18 18 19 18 18 18 18 18
21 21 20 19 20 19 19 19 20 20 19 19 19 19 19 19 18 18 18 18 18 18 18 18 18 18 18 18 18 19 19 19 19 18 18 18 18 18 18 18 18 18 18
21 21 20 20 20 19 19 19 19 19 19 19 18 18 18 18 18 18 18 18 18 18 18 18 18 18 18 18 18 18 18 18 19 18 18 18 18 18 18 18 18 18 18
21 21 20 20 20 19 19 19 19 19 19 18 18 18 18 18 18 18 18 18 18 18 18 18 18 17 17 18 17 18 18 18 18 18 18 18 18 18 18 18 18 18 18
21 21 20 20 20 19 19 19 19 19 18 18 18 18 18 18 18 18 17 17 17 17 17 17 17 17 17 17 17 17 17 18 18 18 18 18 18 18 18 18 18 18 18
21 20 20 20 19 19 19 19 19 18 18 18 18 18 18 17 17 17 17 17 17 17 17 17 17 17 17 17 17 17 17 17 18 18 18 17 17 17 18 18 18 18 18
20 20 20 19 19 19 19 19 19 18 18 18 17 17 17 17 17 17 17 17 17 17 16 16 16 16 16 17 17 17 17 17 17 18 17 17 17 17 18 18 18 18 18
20 20 19 19 19 19 18 18 18 18 18 17 17 17 17 17 16 16 16 16 16 16 16 16 16 16 16 16 16 16 16 17 17 17 17 17 17 17 18 18 18 18 18
19 19 19 18 18 18 18 18 18 18 17 17 17 17 16 16 16 16 15 15 15 15 15 15 15 15 15 15 16 16 16 16 16 17 17 17 17 17 17 17 18 18 18
19 19 19 18 18 18 18 18 18 18 17 17 16 16 16 16 15 15 15 15 15 15 15 15 15 15 15 15 15 16 16 16 16 16 16 17 17 17 17 17 17 17 17
18 18 18 18 18 18 18 18 17 17 17 17 16 16 16 15 15 15 14 14 14 14 14 14 14 14 14 14 15 15 15 16 16 16 16 16 16 17 17 17 17 17 17
18 18 18 18 18 18 17 17 17 17 17 17 16 16 15 15 14 14 14 14 13 13 13 13 13 13 13 14 14 15 15 16 16 17 17 16 16 16 16 16 16 17 17
18 18 18 18 18 18 17 17 17 17 17 16 16 16 15 14 14 13 13 13 13 13 13 13 13 13 13 13 14 14 15 16 17 17 17 17 16 16 16 16 16 16 16
19 19 18 18 18 18 17 17 17 16 16 16 16 15 15 14 14 13 13 12 12 12 12 12 13 12 12 13 13 14 14 15 15 16 16 16 16 16 16 16 16 16 16
19 19 19 18 18 18 17 17 16 16 16 16 16 15 15 14 13 13 12 12 12 12 12 12 12 12 12 12 13 13 14 14 14 14 15 15 16 16 16 16 16 16 16
20 19 19 18 18 18 17 17 16 16 16 15 15 15 14 14 13 13 13 12 12 11 11 11 12 12 12 12 12 12 13 13 13 13 14 15 15 15 15 15 15 15 15
20 20 19 18 18 18 17 16 16 15 15 15 15 14 14 14 14 13 13 12 12 11 11 11 11 11 11 11 11 12 12 12 13 13 13 14 14 15 15 15 15 15 15
Wind_Speed
18 18 18 15 13 12 12 13 12 12 12 12 12 12 12 12 12 12 11 11 11 11 11 10 10 9 9 9 10 10 10 9 10 11 12 12 12 11 11 11 13 15 16
21 19 18 16 14 13 13 13 13 13 12 12 12 12 11 11 11 10 10 10 9 10 10 10 9 9 9 9 9 8 8 7 7 8 10 12 11 10 9 8 12 14 15
20 19 18 17 15 14 14 13 13 13 13 13 12 12 11 10 10 9 9 8 8 9 9 9 9 9 9 8 7 7 6 5 4 5 7 10 11 10 11 14 17 15 14
20 18 18 17 16 15 14 14 14 14 13 13 12 11 11 10 9 8 8 7 7 8 8 7 8 8 8 7 6 5 4 2 1 1 4 8 12 12 13 15 15 14 13
19 19 19 17 16 15 14 14 14 14 13 12 12 11 10 9 8 7 7 6 6 6 6 6 6 6 6 5 5 3 2 2 3 5 2 12 14 13 13 13 14 13 13
19 19 18 17 16 15 14 13 13 13 12 11 11 10 9 8 7 6 5 5 5 5 5 5 5 5 5 4 3 1 2 5 7 5 6 14 14 13 13 12 12 12 12
19 19 18 17 16 14 13 12 12 11 10 10 9 8 7 6 6 5 4 4 4 4 4 4 4 4 3 3 2 1 4 7 9 5 8 14 15 14 13 12 11 11 11
20 19 18 16 15 13 12 11 10 9 9 8 7 6 6 5 4 4 4 3 3 3 3 3 3 3 3 2 2 3 5 9 8 4 8 16 18 16 13 12 11 11 11
20 18 16 15 14 12 11 10 9 8 7 7 6 5 5 5 5 5 4 4 3 3 4 3 3 4 4 4 5 5 6 9 11 9 6 15 20 17 14 12 12 11 11
18 16 15 15 14 13 12 11 10 9 8 7 6 6 6 6 7 7 7 7 5 4 4 4 5 5 6 7 8 8 8 9 12 11 4 15 22 19 16 14 13 12 12
14 13 13 13 12 12 13 13 12 10 9 8 7 7 7 7 7 9 7 7 7 6 5 5 6 7 7 10 12 12 10 10 12 10 4 17 22 20 18 16 14 14 13
12 12 11 9 8 8 9 11 9 9 9 7 5 6 6 4 2 1 5 6 6 6 6 7 7 8 9 9 11 13 10 12 12 8 7 22 22 21 19 17 16 15 15
10 9 11 9 6 4 5 7 4 5 7 4 3 2 1 2 2 2 2 3 4 5 4 4 6 7 6 6 5 7 10 11 9 6 8 18 19 19 19 18 17 16 16
9 8 8 9 7 5 5 3 3 3 3 3 4 4 4 1 2 3 2 2 2 2 2 3 3 4 5 6 7 7 8 8 8 5 6 16 17 18 19 19 18 18 18
9 8 9 8 8 5 4 3 3 3 3 4 5 5 5 2 2 2 2 2 4 3 1 1 2 3 4 6 7 7 7 8 9 8 6 14 18 19 19 19 19 19 19
9 8 8 7 7 5 3 2 1 2 3 5 5 5 4 4 3 2 2 1 2 2 2 3 3 3 4 4 5 6 7 9 10 10 8 11 15 17 18 19 20 21 21
8 8 7 7 7 5 4 2 2 1 4 4 5 6 6 6 5 4 2 1 2 3 3 4 4 4 4 5 5 5 5 7 8 10 10 10 12 17 20 21 22 22 23
9 8 6 7 8 6 4 1 2 3 4 3 4 7 7 5 5 5 3 3 5 6 4 3 3 3 3 4 4 5 4 4 7 10 11 12 13 13 17 22 23 24 24
8 8 7 8 7 6 5 2 3 4 3 2 4 7 6 5 5 5 4 3 5 4 3 5 3 3 4 5 6 6 6 6 7 8 8 11 13 14 15 19 24 26 26
9 8 8 8 6 5 4 2 2 3 2 2 3 6 5 4 5 5 4 4 5 4 4 5 5 4 4 5 8 8 5 7 7 7 8 8 11 14 16 17 19 23 27
9 8 7 7 6 3 2 1 1 1 0 1 2 6 4 2 4 4 3 4 4 4 4 5 5 6 6 5 5 6 7 8 7 7 6 5 5 7 10 12 13 15 17
9 8 8 7 7 4 3 1 1 0 1 1 2 3 3 1 2 4 3 4 5 5 5 5 4 4 6 6 5 6 6 6 4 4 3 5 5 2 3 7 9 12 13
10 9 9 8 7 5 3 2 1 0 2 2 1 1 2 1 2 2 3 3 4 5 5 5 4 5 5 6 5 4 4 4 6 4 4 1 1 2 2 2 6 9 13
11 10 8 8 6 5 3 2 2 3 3 2 1 0 1 1 3 3 3 3 3 4 6 6 5 5 5 5 6 5 4 4 3 5 5 4 3 3 4 4 4 5 10
11 11 9 8 7 5 4 3 3 3 3 3 4 3 2 3 4 4 4 2 2 4 5 5 5 5 5 6 5 6 6 4 4 5 6 6 5 3 3 4 3 4 8
10 9 10 9 7 6 5 4 3 3 3 4 5 5 4 3 3 3 3 2 2 3 4 5 5 6 5 6 5 5 6 5 5 5 6 6 6 4 3 2 3 3 6
Wind_Direction
117 119 114 108 107 114 125 131 132 127 121 116 112 108 105 101 99 96 91 87 84 80 77 75 74 70 68 66 66 64 64 69 76 84 88 91 94 97 101 109 109 104 109
118 119 114 109 106 111 120 126 129 128 122 119 116 114 112 109 106 102 98 93 87 83 79 76 75 74 74 73 74 73 72 74 86 98 106 103 99 97 98 104 106 112 112
117 121 116 110 107 108 113 119 122 124 123 120 119 118 117 115 112 109 104 98 92 87 83 80 80 80 79 78 76 75 77 79 96 124 137 122 110 99 97 102 109 116 115
122 127 119 115 111 109 111 115 118 120 121 122 122 123 123 122 119 115 111 105 99 93 89 86 87 86 85 83 79 74 71 67 63 202 188 141 122 108 108 111 115 118 119
118 117 119 119 116 113 114 116 118 120 122 123 124 125 126 125 123 120 117 113 108 102 97 92 96 95 94 90 82 71 38 339 303 269 159 111 111 121 119 119 121 124 124
121 121 122 122 119 118 118 118 120 122 125 127 128 130 131 131 130 128 123 120 116 110 107 104 106 107 108 107 96 62 326 314 301 279 140 123 123 131 130 131 130 132 130
125 123 125 124 123 122 122 123 123 126 129 131 132 135 138 140 142 141 139 133 122 120 121 118 118 125 132 140 148 253 297 303 287 287 127 125 132 139 139 141 140 141 139
126 125 127 128 128 128 129 130 130 133 135 139 142 146 150 154 161 166 167 163 154 150 147 150 153 157 169 189 212 248 280 293 298 299 133 132 142 145 147 150 151 150 148
125 128 137 138 138 139 140 141 142 145 149 154 161 166 173 181 188 193 195 189 183 176 180 190 198 201 204 215 227 243 265 284 293 282 156 142 149 151 154 158 161 161 160
129 136 143 146 149 156 155 156 158 163 166 174 182 188 199 211 214 216 212 200 200 204 204 212 222 223 222 224 229 235 248 269 270 268 182 155 155 155 160 166 170 171 172
126 133 141 144 155 166 164 161 169 176 182 190 197 206 218 236 231 216 218 192 200 214 223 228 235 237 235 235 233 232 235 248 258 259 168 159 161 160 165 172 177 178 180
128 131 131 138 141 154 153 150 174 177 177 197 186 193 219 258 280 190 157 181 203 220 231 235 239 244 242 244 236 226 230 240 255 259 173 164 166 166 169 175 182 186 186
133 132 129 119 114 114 117 144 135 133 151 168 122 122 83 340 340 46 136 175 216 231 240 245 235 248 257 260 272 225 229 248 255 261 170 168 170 174 175 180 187 192 193
137 125 120 117 106 70 59 69 94 104 119 98 85 53 38 20 3 17 15 360 286 252 237 265 248 263 275 277 274 266 252 249 265 271 190 176 181 187 185 186 192 198 199
129 118 99 99 97 86 62 27 58 65 68 90 77 58 18 12 29 19 354 330 301 302 307 307 292 285 278 272 263 263 268 263 261 257 225 193 193 195 195 196 200 204 206
125 116 111 110 105 106 107 86 44 78 91 82 81 77 42 39 36 6 312 305 298 318 333 294 273 262 257 255 256 254 251 257 254 259 242 213 205 205 205 206 208 209 211
131 123 123 126 121 124 124 141 122 98 89 92 103 89 56 43 23 348 311 322 0 328 290 270 280 277 268 265 260 261 256 256 254 249 247 233 218 217 216 215 215 214 215
134 135 148 131 121 117 108 90 77 65 75 90 104 97 71 40 19 342 331 15 4 334 313 288 262 279 301 307 299 281 267 253 255 248 239 235 229 227 223 224 221 219 218
131 130 116 108 122 128 136 134 107 98 83 75 80 83 65 22 15 353 340 356 339 324 314 314 3 355 329 320 300 271 258 251 246 248 236 232 228 226 224 224 223 222 222
127 125 124 122 121 140 143 142 132 128 145 132 102 101 80 21 22 8 319 9 356 326 330 345 339 322 299 285 288 297 291 266 250 244 240 233 228 228 227 224 217 222 224
137 140 143 137 138 152 144 150 125 111 85 128 128 109 91 36 17 335 324 349 324 322 337 328 331 321 308 290 287 289 282 265 245 230 227 230 236 238 233 225 212 211 219
151 151 149 154 157 172 139 117 152 68 289 284 77 126 133 96 352 316 24 339 339 338 311 296 297 297 304 312 311 304 300 293 308 265 218 212 222 226 244 239 223 216 219
163 169 172 167 164 171 160 202 266 188 257 269 80 126 108 41 311 316 322 313 328 316 318 337 314 307 305 307 298 299 306 324 336 322 331 293 201 210 247 259 241 230 228
174 176 169 166 167 164 183 225 264 271 293 319 313 64 78 291 268 270 276 295 314 313 313 311 352 332 312 304 303 297 284 301 306 317 320 317 276 237 231 251 263 248 239
181 178 170 163 164 170 194 230 258 293 324 350 4 352 335 273 244 230 230 232 283 288 300 320 320 313 309 305 311 314 309 298 264 265 291 306 301 273 243 232 239 239 246
182 174 170 162 167 177 198 226 233 279 317 322 317 300 290 285 267 224 220 169 267 285 306 308 300 292 286 293 298 301 302 298 294 290 292 298 297 291 273 254 249 238 240
Height
1521 1524 1527 1530 1533 1535 1537 1539 1542 1543 1545 1547 1548 1549 1550 1551 1552 1553 1553 1554 1555 1555 1556 1557 1558 1558 1559 1559 1559 1560 1560 1561 1561 1562 1563 1563 1564 1564 1565 1566 1567 1568 1568
1520 1524 1528 1531 1534 1536 1539 1541 1543 1545 1546 1548 1549 1550 1551 1552 1553 1554 1555 1555 1556 1557 1558 1558 1559 1559 1560 1560 1561 1561 1562 1562 1563 1563 1564 1565 1565 1566 1567 1568 1569 1570 1571
1521 1525 1529 1532 1535 1537 1540 1542 1544 1546 1548 1549 1550 1552 1553 1554 1554 1555 1556 1557 1557 1558 1559 1560 1560 1561 1561 1562 1562 1563 1563 1564 1565 1566 1566 1567 1568 1568 1569 1570 1571 1572 1573
1523 1526 1530 1533 1536 1539 1541 1543 1545 1547 1549 1550 1551 1553 1554 1555 1555 1556 1557 1558 1559 1559 1560 1561 1561 1562 1563 1563 1564 1564 1565 1566 1567 1568 1569 1570 1570 1571 1571 1572 1573 1574 1575
1525 1528 1531 1534 1537 1540 1542 1544 1546 1548 1550 1551 1552 1553 1554 1555 1556 1557 1558 1559 1560 1560 1561 1562 1563 1563 1564 1564 1565 1566 1567 1568 1569 1569 1571 1572 1572 1573 1573 1574 1575 1576 1577
1526 1529 1532 1535 1538 1541 1543 1545 1547 1549 1550 1552 1553 1554 1555 1556 1557 1558 1559 1560 1560 1561 1562 1563 1563 1564 1565 1565 1566 1567 1568 1569 1570 1571 1572 1573 1573 1574 1575 1575 1576 1578 1579
1528 1530 1534 1537 1540 1542 1544 1546 1548 1550 1551 1552 1554 1555 1556 1556 1557 1558 1559 1560 1561 1561 1562 1563 1564 1564 1565 1566 1567 1568 1569 1570 1571 1572 1573 1573 1574 1574 1575 1576 1578 1579 1580
1529 1531 1535 1538 1541 1543 1545 1547 1549 1550 1552 1553 1554 1555 1556 1557 1557 1558 1559 1560 1560 1561 1562 1563 1564 1565 1565 1566 1567 1568 1569 1570 1571 1573 1573 1573 1574 1575 1576 1577 1578 1580 1581
1530 1532 1536 1539 1542 1544 1546 1548 1549 1551 1552 1553 1554 1555 1556 1557 1558 1558 1559 1560 1560 1561 1562 1563 1563 1564 1565 1566 1566 1568 1569 1570 1570 1572 1572 1572 1573 1575 1576 1577 1578 1580 1582
1532 1534 1537 1540 1542 1545 1546 1548 1550 1551 1552 1553 1554 1555 1556 1557 1558 1558 1559 1559 1560 1561 1561 1562 1563 1563 1564 1564 1565 1566 1567 1568 1570 1571 1571 1571 1572 1574 1575 1577 1578 1580 1582
1533 1536 1538 1540 1543 1545 1547 1548 1550 1551 1552 1553 1554 1554 1555 1556 1557 1557 1558 1558 1559 1559 1560 1561 1561 1562 1562 1563 1564 1565 1565 1567 1568 1569 1569 1569 1571 1573 1574 1576 1578 1579 1581
1534 1537 1539 1542 1544 1546 1548 1548 1549 1550 1551 1552 1553 1554 1554 1555 1556 1557 1557 1557 1557 1558 1558 1559 1560 1560 1561 1561 1562 1562 1563 1564 1565 1567 1568 1568 1569 1571 1573 1575 1576 1578 1580
1535 1538 1540 1542 1544 1547 1548 1549 1550 1551 1551 1552 1553 1553 1554 1555 1555 1555 1555 1555 1556 1556 1556 1557 1557 1558 1559 1559 1560 1560 1560 1561 1563 1565 1566 1566 1568 1569 1571 1572 1575 1577 1579
1535 1538 1540 1542 1544 1546 1548 1549 1550 1551 1551 1552 1552 1552 1553 1554 1554 1554 1554 1554 1554 1555 1555 1555 1555 1555 1556 1557 1557 1558 1558 1558 1560 1561 1562 1562 1563 1566 1569 1570 1572 1575 1577
1534 1537 1539 1541 1543 1545 1547 1548 1549 1550 1551 1551 1551 1551 1552 1552 1552 1552 1552 1552 1552 1552 1552 1552 1552 1552 1553 1554 1554 1555 1554 1555 1556 1557 1558 1558 1560 1563 1565 1566 1569 1572 1574
1534 1537 1539 1540 1542 1544 1546 1547 1549 1550 1550 1550 1550 1550 1550 1550 1550 1550 1550 1550 1550 1550 1550 1550 1550 1550 1550 1550 1551 1551 1551 1552 1552 1553 1554 1555 1557 1559 1560 1562 1565 1568 1570
1534 1536 1538 1540 1542 1543 1545 1547 1548 1549 1550 1550 1549 1549 1549 1549 1549 1549 1549 1549 1548 1548 1548 1548 1547 1547 1547 1547 1547 1548 1548 1548 1548 1549 1550 1551 1552 1554 1556 1558 1560 1563 1566
1533 1536 1538 1541 1542 1543 1544 1546 1547 1548 1549 1549 1550 1548 1548 1548 1548 1547 1547 1547 1546 1546 1546 1546 1546 1545 1545 1544 1544 1544 1544 1544 1544 1545 1545 1546 1547 1549 1550 1553 1555 1557 1560
1533 1535 1537 1539 1541 1543 1544 1546 1547 1547 1548 1549 1549 1548 1547 1547 1546 1546 1545 1545 1544 1544 1544 1544 1544 1543 1542 1541 1541 1541 1541 1540 1540 1540 1541 1542 1542 1544 1545 1547 1549 1552 1555
1532 1535 1537 1538 1541 1543 1544 1545 1546 1547 1548 1548 1548 1546 1546 1545 1545 1544 1544 1543 1542 1542 1542 1541 1541 1540 1539 1539 1538 1538 1537 1536 1536 1536 1536 1537 1538 1539 1540 1542 1544 1546 1549
1532 1534 1537 1538 1540 1542 1544 1545 1546 1547 1547 1547 1546 1545 1544 1543 1543 1542 1541 1540 1540 1540 1539 1539 1538 1537 1537 1537 1537 1535 1534 1533 1532 1532 1532 1533 1534 1535 1536 1537 1539 1541 1543
1532 1534 1536 1538 1540 1541 1543 1544 1544 1545 1545 1546 1545 1544 1542 1541 1540 1541 1539 1538 1538 1537 1537 1536 1536 1535 1534 1535 1535 1534 1532 1532 1529 1529 1529 1530 1530 1531 1532 1533 1535 1536 1538
1531 1533 1535 1537 1539 1540 1541 1542 1543 1543 1543 1544 1543 1542 1541 1539 1539 1538 1536 1536 1535 1535 1535 1534 1534 1533 1532 1532 1533 1533 1532 1530 1528 1527 1527 1528 1528 1528 1529 1530 1530 1531 1533
1530 1532 1534 1535 1537 1538 1539 1540 1541 1541 1542 1542 1541 1540 1538 1537 1536 1535 1534 1533 1533 1532 1532 1532 1532 1530 1530 1530 1530 1531 1531 1530 1529 1527 1526 1526 1526 1526 1526 1526 1527 1527 1528
1529 1531 1532 1533 1535 1536 1537 1537 1538 1539 1539 1538 1537 1537 1536 1535 1534 1533 1532 1531 1530 1530 1530 1529 1528 1528 1527 1528 1527 1527 1527 1527 1527 1527 1525 1524 1524 1524 1523 1523 1523 1523 1523
1527 1529 1530 1531 1533 1534 1534 1535 1535 1536 1535 1535 1534 1533 1533 1533 1533 1532 1531 1529 1528 1528 1527 1526 1526 1525 1525 1524 1524 1524 1524 1525 1525 1524 1523 1522 1521 1521 1520 1520 1520 1519 1519